Flag for Germany Weather past 2 weeks in Radebeul, Saxony, Germany

Now
51 °F

Overcast.


Feels Like: 50 °F
Forecast: 41 / 54 °F
Wind: 5 mph from North

Location: Dresden-Klotzsche

Current Time: Oct 23, 2014 at 4:47:19 PM

Latest Report: Oct 23, 2014 at 4:00 PM


Visibility: 8 mi

Pressure: 30.17 "Hg

Humidity: 87%

Dew point: 48 °F

Location of RadebeulLocation

Historic Weather in Radebeul — Graph

°F

Radebeul temperature yesterday

Maximum temperature yesterday: 50 °F (at 12:00 AM)
Minimum temperature yesterday: 43 °F (at 10:00 AM)
Average temperature yesterday: 46 °F

Past Weeks' High & Low Weather Summary

 TemperatureHumidityPressure
High70 °F (Oct 19, 4:00 PM)99% (Oct 22, 10:00 PM)30.25 "Hg (Oct 22, 10:00 PM)
Low43 °F (Oct 22, 10:00 AM)55% (Oct 21, 3:00 PM)29.47 "Hg (Oct 21, 11:00 PM)
Average57 °F85%29.89 "Hg
* Reported Oct 8 3:00 PM — Oct 23 3:00 PM, Radebeul, Weather by CustomWeather, © 2014

Note: Actual official high and low records may vary slightly from our data, if they occured in-between our weather recording intervals... More about our weather records

Advertising

Radebeul weather history for previous 24 hours

 ConditionsComfort  
Time TempWeatherWind HumidityBarometerVisibility
3:00 PM
Oct 23
51 °FOvercast.5 mph86%30.16 "Hg7 mi
2:00 PM51 °FOvercast.5 mph88%30.16 "Hg7 mi
1:00 PM51 °FLow clouds.3 mph90%30.15 "Hg5 mi
12:00 PM51 °FFog.3 mph91%30.14 "Hg4 mi
10:00 AM50 °FLow clouds.5 mph94%30.09 "Hg3 mi
9:00 AM51 °FLow clouds.5 mph95%30.07 "Hg3 mi
8:00 AM51 °FDrizzle. Low clouds.6 mph97%30.03 "Hg1 mi
7:00 AM51 °FDrizzle. Low clouds.6 mph97%30.00 "Hg2 mi
6:00 AM51 °FLow clouds.6 mph96%29.98 "Hg2 mi
5:00 AM51 °FFog.7 mph97%29.96 "Hg2 mi
4:00 AM51 °FLow clouds.7 mph97%29.94 "Hg2 mi
3:00 AM50 °FLight rain. Low clouds.7 mph98%29.92 "Hg2 mi
2:00 AM50 °FLight rain. Low clouds.7 mph98%29.90 "Hg1 mi
1:00 AM49 °FLight rain. Low clouds.6 mph98%29.88 "Hg1 mi
12:00 AM49 °FLight rain. Low clouds.6 mph98%29.86 "Hg2 mi
10:00 PM
Oct 22
47 °FDrizzle. Low clouds.6 mph99%29.82 "Hg1 mi
9:00 PM46 °FLight rain. Low clouds.3 mph98%29.79 "Hg1 mi
8:00 PM45 °FRain. Low clouds.3 mph98%29.78 "Hg1 mi
7:00 PM44 °FDrizzle. Low clouds.5 mph97%29.76 "Hg2 mi
6:00 PM44 °FDrizzle. Low clouds.5 mph94%29.75 "Hg4 mi
4:00 PM44 °FLight rain. Overcast.8 mph91%29.74 "Hg6 mi
Weather by CustomWeather, © 2014

See weather overviewHow to use our weather pages